This demonstration page uses our WeatherBlox Daily Observations layout. Learn more.

Left ArrowRight Arrow

39.08367, -84.50855

Hourly Observations for October 9, 2015

Temp ( °F °C ) Dew Point ( °F °C ) Humidity (%) Winds ( mph kmh ) Pressure ( in mb ) Visibility ( mi km ) Precip ( " mm )
12:49 am 00:49 Clear with Mist and Fog 61 16 61 16 100 100 Calm 29.97 1015 2 3 0.00 0.00
12:53 am 00:53 Clear with Mist and Fog 61 16.1 61 16.1 100 100 Calm 29.98 1015 1 2 0.00 0.00
1:08 am 01:08 Clear with Mist and Fog 61 16 61 16 100 100 Calm 29.97 1015 3 4 0.00 0.00
1:15 am 01:15 Clear with Mist and Fog 60 15.6 60 15.6 100 100 Calm 29.97 1015 6 10 0.00 0.00
1:35 am 01:35 Clear with Mist and Fog 60 15.6 60 15.6 100 100 Calm 29.97 1015 2 3 0.00 0.00
1:53 am 01:53 Clear with Fog 59 15 59 15 100 100 Calm 29.98 1015 1 1 0.00 0.00
1:57 am 01:57 Mostly Cloudy with Fog 59 15 59 15 100 100 Calm 29.97 1015 0 0 0.00 0.00
2:01 am 02:01 Clear with Fog 59 15 59 15 100 100 Calm 29.97 1015 1 1 0.00 0.00
2:10 am 02:10 Clear with Fog 61 16 61 16 100 100 Calm 29.97 1015 0 0 0.00 0.00
2:21 am 02:21 Clear with Fog 59 15 59 15 100 100 Calm 29.94 1014 1 1 0.00 0.00
2:39 am 02:39 Clear with Mist and Fog 59 15 59 15 100 100 Calm 29.94 1014 2 3 0.00 0.00
2:48 am 02:48 Clear with Fog 59 15 59 15 100 100 Calm 29.94 1014 1 1 0.00 0.00
2:53 am 02:53 Clear with Mist and Fog 59 15 59 15 100 100 Calm 29.98 1015 2 3 0.00 0.00
3:00 am 03:00 Clear with Mist and Fog 57 14 57 14 100 100 Calm 30.00 1016 5 8 0.00 0.00
3:53 am 03:53 Clear with Mist and Fog 60 15.6 60 15.6 100 100 Calm 29.97 1015 5 8 0.00 0.00
4:53 am 04:53 Clear with Mist and Fog 59 15 59 15 100 100 Calm 29.96 1014 6 10 0.00 0.00
4:55 am 04:55 Clear with Mist and Fog 58 14.4 58 14.4 100 100 Calm 29.97 1015 2 2 0.00 0.00
5:06 am 05:06 Clear with Mist and Fog 59 15 59 15 100 100 Calm 29.94 1014 4 6 0.00 0.00
5:53 am 05:53 Mostly Cloudy with Mist and Fog 60 15.6 60 15.6 100 100 S 3 6 29.96 1015 5 8 0.00 0.00
6:53 am 06:53 Cloudy 63 17.2 61 16.1 93 93 Calm 29.96 1015 10 16 0.00 0.00
7:53 am 07:53 Mostly Sunny 62 16.7 60 15.6 93 93 Calm 29.97 1015 10 16 0.00 0.00
8:53 am 08:53 Mostly Cloudy 64 17.8 62 16.7 93 93 SSE 5 7 29.99 1016 10 16 0.00 0.00
9:53 am 09:53 Sunny 69 20.6 62 16.7 78 78 SW 9 15 29.99 1016 10 16 0.00 0.00
10:53 am 10:53 Sunny 72 22.2 62 16.7 71 71 WSW 9 15 29.99 1016 10 16 0.00 0.00
11:53 am 11:53 Mostly Sunny 73 22.8 63 17.2 71 71 W 10 17 30.01 1016 10 16 0.00 0.00
12:53 pm 12:53 Cloudy 73 22.8 62 16.7 69 69 NW 7 11 30.01 1016 10 16 0.00 0.00
1:53 pm 13:53 Partly Cloudy 71 21.7 61 16.1 71 71 NW 14 22 30.02 1017 10 16 0.00 0.00
2:53 pm 14:53 Partly Cloudy 72 22.2 59 15 64 64 NNW 13 20 30.00 1016 10 16 0.00 0.00
3:53 pm 15:53 Mostly Sunny 69 20.6 56 13.3 63 63 N 14 22 30.01 1016 10 16 0.00 0.00
4:53 pm 16:53 Cloudy 68 20 54 12.2 61 61 NNW 12 19 30.03 1017 10 16 0.00 0.00
5:53 pm 17:53 Cloudy 65 18.3 52 11.1 63 63 NNW 12 19 30.05 1018 10 16 0.00 0.00
6:53 pm 18:53 Mostly Cloudy 63 17.2 51 10.6 65 65 N 9 15 30.07 1018 10 16 0.00 0.00
7:53 pm 19:53 Cloudy 62 16.7 49 9.4 62 62 N 10 17 30.10 1019 10 16 0.00 0.00
8:53 pm 20:53 Cloudy 62 16.7 49 9.4 62 62 N 10 17 30.12 1020 10 16 0.00 0.00
9:53 pm 21:53 Cloudy 61 16.1 48 8.9 63 63 N 9 15 30.13 1020 10 16 0.00 0.00
10:53 pm 22:53 Cloudy 61 16.1 49 9.4 65 65 N 8 13 30.14 1021 10 16 0.00 0.00
11:53 pm 23:53 Cloudy 58 14.4 49 9.4 72 72 N 6 9 30.15 1021 10 16 0.00 0.00

Powered by AerisWeather